Weather History for PAMB - August, 2014

Change the Weather History Date:

Tuesday, August 26, 2014

  Actual Average (PADL) Record (PADL)
Temperature  
Mean Temperature 58 °F -  
Max Temperature 66 °F 59 °F 77 °F (1987)
Min Temperature 50 °F 46 °F 30 °F (1956)
Degree Days  
Heating Degree Days 8    
Growing Degree Days 8 (Base 50)    
Moisture  
Dew Point 52 °F    
Average Humidity 80    
Maximum Humidity 100    
Minimum Humidity 58    
Precipitation  
Precipitation 0.00 in - - ()
Sea Level Pressure  
Sea Level Pressure 29.86 in    
Wind  
Wind Speed 7 mph (West)    
Max Wind Speed 15 mph    
Max Gust Speed 21 mph    
Visibility 10 miles    
Events      
Averages and records for this station are not official NWS values.
T = Trace of Precipitation, MM = Missing Value Source: NWS Daily Summary

Daily Weather History Graph

Daily Weather History Graph

Search for Another Location

Airport or City:

Trip Planner

Search our weather history database for the weather conditions in past years. The results will help you decide how hot, cold, wet, or windy it might be!

Date:

Astronomy

Aug. 26, 2014 Rise Set
Actual Time 7:20 AM AKDT 9:53 PM AKDT
Civil Twilight 6:35 AM AKDT 10:38 PM AKDT
Nautical Twilight 5:36 AM AKDT 11:37 PM AKDT
Astronomical Twilight 4:14 AM AKDT 12:56 AM AKDT
Moon 8:59 AM AKDT (8/26) 9:47 PM AKDT (8/26)
Length of Visible Light 16h 02m
Length of Day
14h 32m
New Moon, 1% of the Moon is Illuminated
Aug 26
New Moon
Sep 2
First Quarter
Sep 8
Full
Sep 15
Last Quarter
Sep 23
New

Hourly Weather History & Observations

Time (AKDT) Temp. Dew Point Humidity Pressure Visibility Wind Dir Wind Speed Gust Speed Precip Events Conditions
12:56 AM 54.9 °F 54.0 °F 97% 29.79 in 10.0 mi West 5.8 mph - N/A   Overcast
1:56 AM 55.9 °F 52.9 °F 89% 29.80 in 10.0 mi Calm Calm - N/A   Overcast
2:56 AM 56.8 °F 54.0 °F 90% 29.80 in 10.0 mi WNW 4.6 mph - 0.00 in   Mostly Cloudy
3:56 AM 57.9 °F 52.9 °F 83% 29.81 in 10.0 mi WNW 9.2 mph - N/A   Overcast
4:56 AM 56.8 °F 52.9 °F 87% 29.83 in 10.0 mi WNW 6.9 mph - N/A   Mostly Cloudy
5:56 AM 56.8 °F 52.0 °F 84% 29.83 in 10.0 mi WNW 6.9 mph - N/A   Overcast
6:56 AM 56.8 °F 52.0 °F 84% 29.84 in 10.0 mi WNW 10.4 mph - N/A   Overcast
7:56 AM 56.8 °F 52.0 °F 84% 29.86 in 10.0 mi WNW 10.4 mph - N/A   Mostly Cloudy
8:56 AM 55.9 °F 52.0 °F 87% 29.87 in 10.0 mi WNW 9.2 mph - N/A   Mostly Cloudy
9:56 AM 55.9 °F 52.9 °F 89% 29.89 in 10.0 mi West 9.2 mph - N/A   Overcast
10:56 AM 59.0 °F 52.0 °F 78% 29.89 in 10.0 mi West 10.4 mph - N/A   Clear
11:56 AM 61.9 °F 52.9 °F 72% 29.90 in 10.0 mi WNW 8.1 mph - N/A   Clear
12:56 PM 63.9 °F 52.9 °F 67% 29.91 in 10.0 mi Variable 6.9 mph - N/A   Partly Cloudy
1:56 PM 64.9 °F 52.0 °F 63% 29.91 in 10.0 mi WNW 8.1 mph - N/A   Clear
2:56 PM 63.9 °F 52.0 °F 65% 29.90 in 10.0 mi West 8.1 mph - N/A   Partly Cloudy
3:56 PM 65.8 °F 50.9 °F 58% 29.89 in 10.0 mi Calm Calm - N/A   Mostly Cloudy
4:56 PM 64.9 °F 50.9 °F 60% 29.88 in 10.0 mi Calm Calm - N/A   Mostly Cloudy
5:56 PM 64.9 °F 54.0 °F 68% 29.88 in 10.0 mi SW 12.7 mph 18.4 mph N/A   Partly Cloudy
6:56 PM 61.9 °F 52.9 °F 72% 29.88 in 10.0 mi SW 15.0 mph 20.7 mph N/A   Clear
7:56 PM 59.9 °F 52.9 °F 78% 29.87 in 10.0 mi SW 11.5 mph 19.6 mph N/A   Clear
8:56 PM 57.9 °F 52.9 °F 83% 29.87 in 10.0 mi SW 10.4 mph - N/A   Clear
9:56 PM 54.9 °F 52.9 °F 93% 29.87 in 10.0 mi SW 8.1 mph - N/A   Clear
10:56 PM 50.9 °F 50.9 °F 100% 29.86 in 10.0 mi SSW 8.1 mph - N/A   Clear
11:56 PM 50.0 °F 50.0 °F 100% 29.85 in 10.0 mi South 5.8 mph - N/A   Clear